DW7779 Weather Reports


time (UTC)temp
F
wind
direction
speed
knots
gust
knots
rain 1hr
in
rain 24hr
in
rain mn
in
humidity
%
barometer
mb
20220930161524 47 0.0 0.0 0.00 0.00 0.00 90 1025.7
20220930160015 48 0.0 0.9 0.00 0.00 0.00 89 1025.7
20220930154532 49 0.0 3.5 0.00 0.00 0.00 87 1025.9
20220930153018 49 0.0 1.7 0.00 0.00 0.00 85 1025.9
20220930151510 50 0.9 5.2 0.00 0.00 0.00 85 1026.0
20220930150002 50 1.7 6.1 0.00 0.00 0.00 86 1026.1
20220930144600 50 1.7 6.1 0.00 0.00 0.00 86 1026.4
20220930143108 49 1.7 5.2 0.00 0.00 0.00 87 1026.5
20220930141554 49 0.0 3.5 0.00 0.00 0.00 86 1026.7
20220930140050 50 0.9 4.3 0.00 0.00 0.00 86 1026.7
20220930134609 50 0.0 2.6 0.00 0.00 0.00 85 1026.8
20220930133105 51 1.7 5.2 0.00 0.00 0.00 85 1026.8
20220930131614 51 3.5 7.0 0.00 0.00 0.00 85 1026.8
20220930130047 51 0.9 5.2 0.00 0.00 0.00 85 1026.9
20220930124547 51 2.6 5.2 0.00 0.00 0.00 85 1026.9
20220930123045 51 2.6 6.1 0.00 0.00 0.00 85 1026.9
20220930121550 52 2.6 8.7 0.00 0.00 0.00 84 1027.0
20220930120044 52 1.7 7.0 0.00 0.00 0.00 84 1027.2
20220930114643 52 2.6 7.8 0.00 0.00 0.00 84 1027.2
20220930113046 53 2.6 10.4 0.00 0.00 0.00 83 1027.1
20220930111602 53 2.6 7.8 0.00 0.00 0.00 83 1027.0
20220930110042 53 2.6 9.6 0.00 0.00 0.00 84 1027.0
20220930104559 52 1.7 4.3 0.00 0.00 0.00 86 1027.0
20220930103041 52 0.9 7.0 0.00 0.00 0.00 88 1027.0
20220930101625 52 0.0 2.6 0.00 0.00 0.00 89 1026.8
20220930100040 52 0.0 1.7 0.00 0.00 0.00 87 1026.8
20220930094605 53 0.0 1.7 0.00 0.00 0.00 85 1026.8
20220930093039 54 0.0 2.6 0.00 0.00 0.00 83 1026.6
20220930091538 55 0.0 6.1 0.00 0.00 0.00 82 1026.3
20220930090037 55 0.9 4.3 0.00 0.00 0.00 81 1026.3
20220930084537 56 1.7 6.1 0.00 0.00 0.00 80 1026.1
20220930083057 56 0.0 6.1 0.00 0.00 0.00 79 1026.1
20220930081537 57 0.9 6.1 0.00 0.00 0.00 79 1026.1
20220930080040 58 1.7 4.3 0.00 0.00 0.00 78 1026.1
20220930074535 58 1.7 5.2 0.00 0.00 0.00 78 1026.2
20220930073034 59 0.0 3.5 0.00 0.00 0.00 78 1026.1
20220930071602 60 0.0 3.5 0.00 0.00 0.00 76 1026.2
20220930070050 60 0.9 4.3 0.00 0.00 0.00 77 1026.0
20220930064536 61 1.7 5.2 0.00 0.00 0.00 76 1025.9
20220930063039 61 1.7 6.1 0.00 0.00 0.00 76 1026.0
20220930061531 61 0.9 5.2 0.00 0.00 0.00 76 1026.1
20220930060056 60 2.6 6.1 0.00 0.00 0.00 74 1026.1
20220930054528 61 2.6 7.8 0.00 0.00 0.00 71 1026.2
20220930053036 61 2.6 6.1 0.00 0.00 0.00 74 1026.3
20220930051527 60 2.6 7.8 0.00 0.00 0.00 74 1026.4
20220930050025 60 1.7 7.0 0.00 0.00 0.00 75 1026.6
20220930044530 61 2.6 7.8 0.00 0.00 0.00 70 1026.6
20220930043026 61 2.6 7.8 0.00 0.00 0.00 71 1026.8
20220930041528 61 4.3 9.6 0.00 0.00 0.00 72 1027.0
20220930040021 61 3.5 11.3 0.00 0.00 0.00 71 1027.1
20220930034533 61 4.3 7.8 0.00 0.00 0.00 70 1027.2
20220930033020 61 2.6 10.4 0.00 0.00 0.00 71 1027.4
20220930031522 61 2.6 11.3 0.00 0.00 0.00 71 1027.5
20220930030017 61 2.6 8.7 0.00 0.00 0.00 70 1027.6
20220930024514 61 4.3 9.6 0.00 0.00 0.00 71 1027.6
20220930023015 60 2.6 12.2 0.00 0.00 0.00 73 1027.7
20220930021514 60 3.5 8.7 0.00 0.00 0.00 72 1027.8
20220930020024 60 3.5 12.2 0.00 0.00 0.00 73 1028.0
20220930014510 59 2.6 9.6 0.00 0.00 0.00 76 1028.1
20220930013004 58 2.6 8.7 0.00 0.00 0.00 77 1028.4
20220930011504 58 2.6 9.6 0.00 0.00 0.00 78 1028.6
20220930010101 57 2.6 10.4 0.00 0.00 0.00 79 1028.9
20220930004625 57 4.3 10.4 0.00 0.00 0.00 79 1029.0
20220930003059 57 4.3 11.3 0.00 0.00 0.00 78 1029.2
20220930001558 56 2.6 8.7 0.00 0.00 0.00 80 1029.3
20220930000055 56 4.3 10.4 0.00 0.00 0.00 81 1029.5
20220929234552 55 4.3 9.6 0.00 0.00 0.00 81 1029.3
20220929233106 54 0.9 7.8 0.00 0.00 0.00 83 1029.3
20220929231550 54 4.3 9.6 0.00 0.00 0.00 83 1029.3
20220929230046 53 2.6 8.7 0.00 0.00 0.00 84 1029.3
20220929224544 53 1.7 9.6 0.00 0.00 0.00 85 1029.2
20220929223103 53 2.6 11.3 0.00 0.00 0.00 85 1029.2
20220929221545 53 2.6 8.7 0.00 0.00 0.00 85 1029.0
20220929220039 53 4.3 12.2 0.00 0.00 0.00 85 1028.8
20220929214536 53 3.5 11.3 0.00 0.00 0.00 85 1028.6
20220929213054 52 2.6 9.6 0.00 0.00 0.00 87 1028.4
20220929211535 52 0.9 6.1 0.00 0.00 0.00 89 1028.4
20220929210046 52 0.9 7.8 0.00 0.00 0.00 90 1028.2
20220929204535 51 1.7 4.3 0.00 0.00 0.00 90 1028.0
20220929203021 51 0.9 6.1 0.00 0.00 0.00 91 1027.9
20220929201520 51 0.9 4.3 0.00 0.00 0.00 91 1027.9
20220929200018 51 0.9 6.1 0.00 0.00 0.00 91 1027.6
20220929194515 51 0.9 6.1 0.00 0.00 0.00 92 1027.4
20220929193020 51 1.7 6.1 0.00 0.00 0.00 92 1027.3
20220929191519 51 0.9 6.1 0.00 0.00 0.00 92 1027.1
20220929190025 51 0.9 5.2 0.00 0.00 0.00 93 1027.0
20220929184513 50 1.7 5.2 0.00 0.00 0.00 93 1026.9
20220929183017 50 1.7 5.2 0.00 0.00 0.00 93 1026.9
20220929181530 50 1.7 7.0 0.00 0.00 0.00 93 1026.7
20220929180009 50 1.7 7.0 0.00 0.00 0.00 94 1026.6
20220929174510 49 1.7 5.2 0.00 0.00 0.00 95 1026.5
20220929173009 49 0.0 4.3 0.00 0.00 0.00 94 1026.5
20220929171515 49 0.0 1.7 0.00 0.00 0.00 94 1026.6
20220929170003 49 0.0 3.5 0.00 0.00 0.00 94 1026.6
20220929164504 49 0.0 3.5 0.00 0.00 0.00 94 1026.7
20220929163002 49 0.0 3.5 0.00 0.00 0.00 94 1026.7